This is the latest recevied weather packets stored in our database for station/object N2PUI. If no packets are shown the sender has not sent any weather packets the latest 10 day(s).
| Time | Temp. | Humidity | Pressure | Rain* | Wind** | Luminosity | Snow |
|---|---|---|---|---|---|---|---|
| 1778019778 | 18.33° C | 78% | 1007.5 hPa | 0 mm | - | 10 W/m² | - |
| 1778019475 | 18.89° C | 78% | 1007.3 hPa | 0 mm | - | 12 W/m² | - |
| 1778019172 | 18.33° C | 77% | 1006.8 hPa | 0 mm | - | 22 W/m² | - |
| 1778018868 | 18.89° C | 77% | 1007.4 hPa | 0 mm | - | 29 W/m² | - |
| 1778018566 | 18.89° C | 77% | 1006.8 hPa | 0 mm | - | 29 W/m² | - |
| 1778018264 | 18.89° C | 77% | 1006.9 hPa | 0 mm | - | 38 W/m² | - |
| 1778017961 | 18.89° C | 76% | 1007.2 hPa | 0 mm | - | 72 W/m² | - |
| 1778017659 | 18.89° C | 77% | 1006.9 hPa | 0 mm | - | 127 W/m² | - |
| 1778017356 | 18.89° C | 77% | 1006.8 hPa | 0 mm | - | 196 W/m² | - |
| 1778017053 | 18.33° C | 76% | 1006.8 hPa | 0 mm | - | 203 W/m² | - |
| 1778016750 | 18.33° C | 79% | 1006.7 hPa | 0 mm | - | 206 W/m² | - |
| 1778016446 | 17.78° C | 81% | 1006.4 hPa | 0 mm | - | 269 W/m² | - |
| 1778016144 | 17.22° C | 82% | 1006.4 hPa | 0 mm | - | 314 W/m² | - |
| 1778015841 | 16.67° C | 83% | 1006.8 hPa | 0 mm | - | 289 W/m² | - |
| 1778015538 | 16.11° C | 85% | 1006.7 hPa | 0 mm | - | 258 W/m² | - |
| 1778015234 | 16.67° C | 88% | 1006.7 hPa | 0 mm | - | 245 W/m² | - |
| 1778014931 | 16.11° C | 88% | 1006.4 hPa | 0 mm | - | 292 W/m² | - |
| 1778014629 | 16.11° C | 88% | 1006.7 hPa | 0 mm | - | 276 W/m² | - |
| 1778014327 | 16.11° C | 89% | 1006.6 hPa | 0 mm | - | 314 W/m² | - |
| 1778014023 | 16.11° C | 89% | 1006.7 hPa | 0 mm | - | 351 W/m² | - |
| 1778013720 | 15.56° C | 89% | 1006.8 hPa | 0 mm | - | 186 W/m² | - |
| 1778013412 | 15.56° C | 88% | 1006.9 hPa | 0 mm | - | 107 W/m² | - |
| 1778013109 | 15.56° C | 88% | 1007 hPa | 0 mm | - | 67 W/m² | - |
| 1778012804 | 15.56° C | 88% | 1007.1 hPa | 0 mm | - | 85 W/m² | - |
| 1778012501 | 15.56° C | 87% | 1007.3 hPa | 0 mm | - | 108 W/m² | - |
* Rain latest hour (hover to see other rain measurements)
** Current wind speed in m/s (hover to see current wind gust speed)